[[{"header":{"parameterUnit":"m.s-1","parameterCategory":1,"la1":30.2991,"la2":30.254,"lo1":-89.0895,"lo2":-89.0444,"dy":0.0017,"dx":0.0017,"nx":28,"ny":28,"refTime":"2024-05-06T21:00:00:Z","depth":0,"parameterNumber":2,"parameterNumberName":"U-component_of_WINDS"},"data":[0,0,0,0,0,0,0,0,0,0,0,0,0,0,0,0,0,0,0,0,0,0,0,0,0,0,0,0,0,0,0,0,0,0,0,0,0,0,0,0,0,0,0,0,0,0,0,0,0,0,0,0,0,0,0,0,0,0,-2.1898,-2.1898,0,-2.1952,-2.1952,-2.1953,-2.1965,-2.1965,-2.1964,-2.1964,-2.2018,-2.202,-2.2022,0,0,0,0,0,0,0,0,0,0,0,0,0,-2.1805,-2.1807,-2.1898,-2.1898,-2.1899,-2.1952,-2.1952,-2.1953,-2.1965,-2.1965,-2.1964,-2.1964,-2.2018,-2.202,-2.2022,0,0,0,0,0,0,0,0,0,0,0,0,0,-2.1851,-2.1808,-2.1898,-2.1911,-2.1913,-2.1952,-2.1953,-2.1953,-2.1965,-2.1965,-2.1964,-2.1963,-2.2017,-2.2019,-2.2022,-2.205,0,0,-2.203,-2.2032,0,0,0,0,0,0,0,0,-2.1848,-2.1854,-2.1909,-2.191,-2.1913,-2.1951,-2.194,-2.1986,-2.1965,-2.1945,-2.1964,-2.1963,-2.1996,-2.2001,-2.2012,-2.2053,-2.2055,-2.2031,-2.2032,-2.2033,-2.2034,0,0,0,0,0,0,0,-2.1845,-2.1852,-2.1919,-2.1909,-2.1912,-2.1915,-2.1921,-2.1949,-2.1973,-2.1947,-2.1948,-2.1954,-2.1997,-2.2009,-2.2013,-2.2056,-2.2031,-2.2033,-2.2035,-2.2036,-2.2125,-2.2125,0,0,0,0,0,0,-2.184,-2.1849,-2.1917,-2.1921,-2.1878,-2.1917,-2.1924,-2.1939,-2.1973,-2.1978,-2.1955,-2.1955,-2.2005,-2.201,-2.2015,-2.2051,-2.2033,-2.2036,-2.2038,-2.2124,-2.2125,-2.2126,0,0,0,0,0,0,-2.1838,-2.1846,-2.1915,-2.1885,-2.1895,-2.1919,-2.1937,-2.1941,-2.1953,-2.1979,-2.1983,-2.1963,-2.2005,-2.2011,-2.2042,-2.2053,-2.2037,-2.204,-2.2123,-2.2124,-2.2125,-2.2122,0,0,0,0,0,0,-2.1835,-2.1845,-2.1855,-2.1886,-2.1896,-2.1941,-2.1937,-2.1942,-2.1958,-2.1958,-2.1987,-2.1992,-2.2005,-2.2038,-2.2045,-2.2057,-2.2042,-2.2122,-2.2123,-2.2125,-2.2122,-2.2123,-2.2125,0,0,0,0,0,-2.1832,-2.1852,-2.1856,-2.1864,-2.191,-2.1941,-2.1947,-2.1962,-2.1958,-2.1969,-2.1987,-2.1991,-2.2051,-2.2041,-2.2049,-2.2061,-2.2121,-2.2123,-2.2125,-2.2121,-2.2123,-2.2125,0,0,0,0,0,0,-2.1822,-2.1856,-2.1861,-2.1892,-2.1914,-2.1943,-2.1957,-2.1964,-2.1987,-2.1986,-2.2004,-2.201,-2.204,-2.2054,-2.2042,-2.2091,-2.2086,-2.2089,-2.2081,-2.2083,-2.2084,-2.208,-2.2044,0,0,0,0,0,-2.1823,-2.1846,-2.1875,-2.1899,-2.191,-2.1932,-2.1946,-2.1956,-2.1979,-2.1989,-2.2008,-2.203,-2.2054,-2.207,-2.2093,-2.2125,-2.2131,-2.2137,-2.2139,-2.214,-2.2142,-2.2161,-2.2164,-2.2131,-2.2131,-2.2131,0,0,-2.1826,-2.1848,-2.1861,-2.1898,-2.1916,-2.1939,-2.194,-2.1964,-2.1981,-2.1992,-2.2022,-2.2037,-2.2064,-2.2095,-2.211,-2.2107,-2.2153,-2.2142,-2.2143,-2.2144,-2.2163,-2.2166,-2.2168,-2.2132,-2.2132,-2.2132,0,0,-2.1843,-2.1862,-2.1885,-2.1904,-2.1932,-2.1946,-2.1952,-2.1982,-2.1992,-2.2023,-2.2032,-2.2053,-2.2094,-2.2113,-2.2128,-2.2155,-2.2159,-2.2162,-2.217,-2.2187,-2.219,-2.2192,-2.2202,-2.2205,-2.2164,-2.2164,-2.2164,0,-2.1843,-2.1879,-2.1896,-2.192,-2.1936,-2.1949,-2.1972,-2.1989,-2.2023,-2.2034,-2.2032,-2.2085,-2.2103,-2.2139,-2.2146,-2.2158,-2.2165,-2.2158,-2.2188,-2.2191,-2.2193,-2.2202,-2.2206,-2.2165,-2.2165,-2.2165,-2.2165,0,-2.1878,-2.1902,-2.1917,-2.1951,-2.1969,-2.1993,-2.2014,-2.203,-2.2039,-2.2054,-2.2086,-2.2109,-2.2138,-2.2148,-2.2156,-2.2186,-2.2184,-2.2185,-2.2179,-2.2196,-2.2205,-2.2209,-2.2165,-2.2165,-2.2165,-2.2165,0,0,-2.1888,-2.1932,-2.1937,-2.1953,-2.1986,-2.2005,-2.203,-2.2059,-2.2073,-2.2097,-2.2118,-2.2154,-2.2156,-2.2173,-2.2184,-2.22,-2.222,-2.2199,-2.22,-2.2201,-2.2254,-2.2252,-2.2256,-2.2224,-2.2225,-2.2225,-2.2251,0,-2.1909,-2.1953,-2.197,-2.2007,-2.203,-2.2044,-2.2065,-2.2088,-2.2104,-2.2126,-2.2143,-2.2168,-2.2169,-2.2179,-2.2195,-2.2214,-2.223,-2.2212,-2.2244,-2.2245,-2.2235,-2.2261,-2.2258,-2.2282,-2.2255,-2.2256,-2.2256,0,-2.1938,-2.1963,-2.2002,-2.2034,-2.2044,-2.2063,-2.2092,-2.2113,-2.214,-2.215,-2.217,-2.2181,-2.2208,-2.2203,-2.2241,-2.2228,-2.2242,-2.2254,-2.2255,-2.2257,-2.225,-2.2263,-2.2289,-2.2293,-2.2262,-2.2261,-2.2261,0,-2.1942,-2.1985,-2.2014,-2.2028,-2.2065,-2.2078,-2.2094,-2.212,-2.2137,-2.2163,-2.2174,-2.2202,-2.2217,-2.2239,-2.2257,-2.2252,-2.2294,-2.229,-2.2303,-2.2302,-2.2309,-2.2308,-2.2338,-2.232,-2.232,-2.232,-2.232,0,-2.1963,-2.1986,-2.2016,-2.2034,-2.2061,-2.2081,-2.2107,-2.2124,-2.2148,-2.217,-2.2183,-2.2203,-2.2227,-2.225,-2.2265,-2.2294,-2.2301,-2.231,-2.2314,-2.2308,-2.2307,-2.2317,-2.2315,-2.2321,-2.2321,-2.2321,-2.2321,0,-2.197,-2.1991,-2.2024,-2.2057,-2.2066,-2.2085,-2.2113,-2.2131,-2.2149,-2.2176,-2.2184,-2.221,-2.2239,-2.226,-2.2296,-2.2306,-2.2337,-2.2341,-2.2328,-2.233,-2.2342,-2.234,-2.2377,-2.2383,-2.2363,-2.2363,-2.2363,0,-2.1981,-2.2,-2.2035,-2.2051,-2.2067,-2.2092,-2.211,-2.2131,-2.2149,-2.2182,-2.2196,-2.2226,-2.225,-2.2295,-2.2318,-2.2346,-2.235,-2.2362,-2.2355,-2.2349,-2.235,-2.2348,-2.235,-2.2362,-2.2362,-2.2362,-2.2362,0,-2.1999,-2.2009,-2.2034,-2.2063,-2.2084,-2.2108,-2.2132,-2.2144,-2.217,-2.2189,-2.2219,-2.2238,-2.2276,-2.2305,-2.2337,-2.2353,-2.2362,-2.2365,-2.2369,-2.2363,-2.2355,-2.2359,-2.233,-2.2363,-2.2363,-2.2363,-2.2363,-2.2363,-2.2009,-2.2026,-2.2054,-2.2082,-2.2102,-2.2125,-2.2144,-2.2164,-2.2189,-2.2222,-2.2233,-2.2264,-2.2291,-2.2334,-2.2352,-2.2376,-2.2376,-2.2382,-2.2384,-2.2385,-2.2384,-2.2352,-2.2382,-2.2382,-2.2382,-2.2382,-2.2382,0,-2.2027,-2.2046,-2.2071,-2.2105,-2.2127,-2.2135,-2.2162,-2.218,-2.2207,-2.2232,-2.2257,-2.2291,-2.232,-2.2346,-2.2376,-2.2391,-2.2395,-2.2398,-2.2396,-2.24,-2.2383,-2.2376,-2.2393,-2.2393,-2.2393,-2.2393,-2.2393,-2.2393,-2.2039,-2.2069,-2.2082,-2.2123,-2.2142,-2.2172,-2.2187,-2.2209,-2.2229,-2.2267,-2.2291,-2.2308,-2.2334,-2.2367,-2.2394,-2.2401,-2.2411,-2.2412,-2.242,-2.2403,-2.2401,-2.24,-2.2393,-2.2414,-2.2414,-2.2435,-2.2435,-2.2435]},{"header":{"parameterUnit":"m.s-1","parameterCategory":1,"la1":30.2991,"la2":30.254,"lo1":-89.0895,"lo2":-89.0444,"dy":0.0017,"dx":0.0017,"nx":28,"ny":28,"refTime":"2024-05-06T21:00:00:Z","depth":0,"parameterNumber":3,"parameterNumberName":"V-component_of_WINDS"},"data":[0,0,0,0,0,0,0,0,0,0,0,0,0,0,0,0,0,0,0,0,0,0,0,0,0,0,0,0,0,0,0,0,0,0,0,0,0,0,0,0,0,0,0,0,0,0,0,0,0,0,0,0,0,0,0,0,0,0,4.8024,4.8024,0,4.8025,4.8025,4.8025,4.8008,4.8007,4.8007,4.8006,4.8007,4.8007,4.8008,0,0,0,0,0,0,0,0,0,0,0,0,0,4.801,4.801,4.8024,4.8024,4.8024,4.8025,4.8025,4.8025,4.8008,4.8007,4.8007,4.8006,4.8007,4.8007,4.8008,0,0,0,0,0,0,0,0,0,0,0,0,0,4.8014,4.801,4.8024,4.8016,4.8015,4.8025,4.8025,4.8025,4.8008,4.8007,4.8007,4.8006,4.8006,4.8007,4.8008,4.8025,0,0,4.801,4.801,0,0,0,0,0,0,0,0,4.8013,4.8014,4.8017,4.8017,4.8016,4.8015,4.8019,4.8025,4.8008,4.8011,4.8006,4.8006,4.801,4.801,4.8012,4.8025,4.8025,4.801,4.801,4.801,4.8011,0,0,0,0,0,0,0,4.8013,4.8014,4.8024,4.8017,4.8016,4.8012,4.8012,4.802,4.8014,4.801,4.8009,4.8009,4.801,4.8011,4.8012,4.8025,4.801,4.801,4.8011,4.8011,4.8052,4.8053,0,0,0,0,0,0,4.8014,4.8014,4.8024,4.8024,4.8013,4.8013,4.8013,4.8016,4.8014,4.8013,4.801,4.8009,4.8011,4.8011,4.8012,4.8032,4.801,4.8011,4.8011,4.8052,4.8053,4.8053,0,0,0,0,0,0,4.8014,4.8015,4.8024,4.8019,4.802,4.8014,4.8018,4.8017,4.8018,4.8014,4.8013,4.8013,4.801,4.8011,4.8022,4.8031,4.8011,4.8012,4.8051,4.8052,4.8053,4.8072,0,0,0,0,0,0,4.8013,4.8015,4.8021,4.8019,4.802,4.8034,4.8018,4.8017,4.8019,4.8018,4.8016,4.8015,4.801,4.8021,4.8022,4.8032,4.8012,4.805,4.8051,4.8053,4.807,4.8073,4.8076,0,0,0,0,0,4.8013,4.8027,4.8022,4.8023,4.8028,4.8035,4.8035,4.8029,4.802,4.8027,4.8024,4.8015,4.803,4.8022,4.8024,4.8034,4.8049,4.8051,4.8053,4.8069,4.8073,4.8076,0,0,0,0,0,0,4.803,4.8026,4.8021,4.8034,4.8035,4.8032,4.804,4.8033,4.8036,4.8034,4.8026,4.8026,4.8038,4.8037,4.8028,4.805,4.8038,4.804,4.805,4.8054,4.8057,4.8056,4.8013,0,0,0,0,0,4.8036,4.8041,4.8038,4.805,4.8051,4.8045,4.8048,4.8043,4.8043,4.8044,4.8042,4.8042,4.8047,4.8051,4.8055,4.807,4.807,4.8078,4.8081,4.8083,4.8085,4.8093,4.8096,4.8059,4.8059,4.8059,0,0,4.8047,4.8045,4.8049,4.8053,4.8053,4.806,4.8046,4.8053,4.8057,4.8045,4.8055,4.8053,4.8054,4.8067,4.8073,4.8067,4.8095,4.8085,4.8087,4.8088,4.8095,4.8098,4.8102,4.806,4.806,4.8059,0,0,4.807,4.807,4.808,4.808,4.808,4.8077,4.8079,4.8077,4.8076,4.8086,4.8077,4.8082,4.8091,4.8092,4.8093,4.8118,4.811,4.8119,4.8134,4.8142,4.8145,4.8148,4.8156,4.8159,4.8121,4.8121,4.8121,0,4.8083,4.8092,4.8086,4.8094,4.8096,4.8085,4.8095,4.8096,4.8097,4.8099,4.8092,4.8103,4.8103,4.8116,4.8122,4.8124,4.8126,4.8119,4.8145,4.8148,4.815,4.8158,4.8161,4.8122,4.8122,4.8122,4.8122,0,4.8109,4.8116,4.8124,4.8126,4.8129,4.8138,4.8133,4.8137,4.8132,4.8129,4.8139,4.8139,4.8143,4.8146,4.8141,4.8158,4.8154,4.8147,4.8134,4.8155,4.8162,4.8165,4.8124,4.8124,4.8123,4.8123,0,0,4.8142,4.8141,4.8144,4.8145,4.8145,4.815,4.8159,4.8162,4.8166,4.8168,4.8175,4.8183,4.8176,4.8178,4.8173,4.818,4.8199,4.8171,4.8171,4.8176,4.8218,4.8223,4.8227,4.8194,4.8195,4.8195,4.8218,0,4.8165,4.8179,4.8174,4.8189,4.8195,4.8185,4.8192,4.8193,4.8191,4.8196,4.8194,4.8199,4.819,4.8191,4.8198,4.8195,4.8207,4.8194,4.82,4.8201,4.82,4.8231,4.8236,4.8257,4.822,4.8221,4.8221,0,4.8192,4.8195,4.8211,4.821,4.8212,4.8219,4.8223,4.8227,4.8228,4.8226,4.8229,4.8222,4.8231,4.822,4.8231,4.8222,4.8225,4.8224,4.8225,4.8225,4.8212,4.8231,4.8264,4.8267,4.8226,4.8225,4.8225,0,4.8214,4.8222,4.8233,4.8234,4.8233,4.8238,4.8238,4.8239,4.8241,4.8245,4.8246,4.825,4.8253,4.8256,4.8251,4.8243,4.8264,4.8252,4.8262,4.8262,4.8266,4.8266,4.83,4.8269,4.8269,4.8269,4.8269,0,4.8239,4.8249,4.8243,4.8249,4.826,4.8254,4.8265,4.8264,4.8264,4.827,4.8262,4.8268,4.8262,4.8267,4.8263,4.8273,4.8275,4.8273,4.8272,4.8273,4.8274,4.8274,4.8273,4.827,4.8269,4.8269,4.8269,0,4.8265,4.8262,4.8272,4.8271,4.8271,4.8279,4.8278,4.8284,4.8281,4.8289,4.829,4.8287,4.8293,4.8288,4.8294,4.8292,4.8305,4.8302,4.8305,4.8304,4.8314,4.8313,4.8349,4.8353,4.8321,4.8321,4.8321,0,4.8281,4.8289,4.8288,4.8292,4.8292,4.8298,4.8301,4.8295,4.8299,4.8301,4.8306,4.8311,4.8315,4.8325,4.8323,4.8327,4.8324,4.8337,4.8325,4.8326,4.8324,4.8323,4.8324,4.8339,4.8339,4.8339,4.834,0,4.831,4.8308,4.8312,4.8316,4.832,4.8323,4.8325,4.8328,4.8323,4.8327,4.8333,4.8336,4.8342,4.8347,4.8351,4.8351,4.8344,4.8344,4.8346,4.8347,4.8348,4.8347,4.831,4.8343,4.8342,4.8342,4.8342,4.8342,4.8331,4.8337,4.8338,4.8343,4.8344,4.8347,4.8352,4.835,4.8355,4.836,4.8356,4.8363,4.8364,4.8369,4.837,4.8375,4.837,4.8374,4.8375,4.8375,4.8377,4.8348,4.8376,4.8376,4.8376,4.8376,4.8375,0,4.8359,4.8359,4.8364,4.8367,4.8371,4.8365,4.8367,4.8371,4.8378,4.8379,4.8383,4.839,4.8395,4.8394,4.8398,4.8403,4.84,4.8404,4.8403,4.8404,4.8381,4.8378,4.8406,4.8406,4.8406,4.8406,4.8406,4.8406,4.8374,4.8384,4.8382,4.8392,4.8392,4.8399,4.8401,4.8403,4.8404,4.8412,4.8416,4.8415,4.8416,4.842,4.8425,4.8424,4.8426,4.8431,4.8429,4.8408,4.8405,4.8402,4.8399,4.8432,4.8432,4.8451,4.8451,4.8451]}]]